{"data":{"norad_id":53487,"epoch":"2026-09-20T13:43:52.872672Z","epoch_age_seconds":72764,"freshness":"FRESH","line1":"1 53487U 22099Y   26263.57213973 -.00002271  00000+0 -68050-4 0  9991","line2":"2 53487  97.2885  21.2772 0001256  89.5090 270.6296 15.33441722225568","mean_motion":15.33441722,"eccentricity":0.0001256,"inclination_deg":97.2885,"raan_deg":21.2772,"arg_perigee_deg":89.509,"mean_anomaly_deg":270.6296,"bstar":-6.805e-5,"rev_number":22556,"period_min":93.906405397779,"perigee_km":464.69336006234,"apogee_km":466.41249497213,"semimajor_km":6843.6899275172,"source":"CELESTRAK","updated_at":"2026-09-21T09:00:32.892159Z"}}